Saint Bonnet de Bellac- Haute Vienne - France
Donnes mto: samedi, 16/06/2012
Date Horaire Temp. E. Hum. E. P.atmo. Pluie Vent Direction Direction Ensoleilleme Solaire P. de rose Temp au vent Rafales
16/06/2012 00:00 17,9 C 75 % 1015,6 hPa 0,0 mm 5,4 km/h (2 Bft) NO 315 0 min 0 W/m 13,4 C 17,9 C 5,4 km/h (2 Bft)
16/06/2012 00:10 18,0 C 75 % 1015,8 hPa 0,0 mm 0,0 km/h (0 Bft) O-NO 292 0 min 0 W/m 13,5 C 18,0 C 0,0 km/h (0 Bft)
16/06/2012 00:20 17,8 C 76 % 1016,0 hPa 0,0 mm 0,0 km/h (0 Bft) S 180 0 min 0 W/m 13,5 C 17,8 C 0,0 km/h (0 Bft)
16/06/2012 00:30 17,6 C 76 % 1016,0 hPa 0,0 mm 0,0 km/h (0 Bft) S 180 0 min 0 W/m 13,3 C 17,6 C 0,0 km/h (0 Bft)
16/06/2012 00:40 17,4 C 76 % 1015,9 hPa 0,0 mm 0,0 km/h (0 Bft) S 180 0 min 0 W/m 13,1 C 17,4 C 0,0 km/h (0 Bft)
16/06/2012 00:50 17,1 C 76 % 1015,8 hPa 0,0 mm 0,0 km/h (0 Bft) S 180 0 min 0 W/m 12,8 C 17,1 C 0,0 km/h (0 Bft)
16/06/2012 01:00 16,8 C 77 % 1015,6 hPa 0,0 mm 0,4 km/h (0 Bft) S 180 0 min 0 W/m 12,7 C 16,8 C 3,2 km/h (1 Bft)
16/06/2012 01:10 16,6 C 77 % 1015,3 hPa 0,0 mm 1,1 km/h (1 Bft) SE 135 0 min 0 W/m 12,5 C 16,6 C 3,2 km/h (1 Bft)
16/06/2012 01:20 16,6 C 78 % 1015,3 hPa 0,0 mm 1,1 km/h (1 Bft) S-SE 157 0 min 0 W/m 12,7 C 16,6 C 4,3 km/h (1 Bft)
16/06/2012 01:30 16,6 C 80 % 1015,4 hPa 0,0 mm 0,0 km/h (0 Bft) SE 135 0 min 0 W/m 13,1 C 16,6 C 0,0 km/h (0 Bft)
16/06/2012 01:40 16,4 C 80 % 1015,3 hPa 0,0 mm 0,0 km/h (0 Bft) SE 135 0 min 0 W/m 12,9 C 16,4 C 0,0 km/h (0 Bft)
16/06/2012 01:50 16,2 C 83 % 1015,5 hPa 0,0 mm 0,0 km/h (0 Bft) S-SO 202 0 min 0 W/m 13,3 C 16,2 C 0,0 km/h (0 Bft)
16/06/2012 02:00 16,2 C 84 % 1015,4 hPa 0,0 mm 0,4 km/h (0 Bft) SO 225 0 min 0 W/m 13,5 C 16,2 C 0,4 km/h (0 Bft)
16/06/2012 02:10 16,3 C 84 % 1015,3 hPa 0,0 mm 0,7 km/h (0 Bft) SO 225 0 min 0 W/m 13,6 C 16,3 C 4,0 km/h (1 Bft)
16/06/2012 02:20 16,4 C 84 % 1015,7 hPa 0,0 mm 1,8 km/h (1 Bft) S-SO 202 0 min 0 W/m 13,7 C 16,4 C 3,6 km/h (1 Bft)
16/06/2012 02:30 16,6 C 83 % 1015,6 hPa 0,0 mm 3,6 km/h (1 Bft) S-SO 202 0 min 0 W/m 13,7 C 16,6 C 3,6 km/h (1 Bft)
16/06/2012 02:40 16,7 C 83 % 1015,7 hPa 0,0 mm 2,9 km/h (1 Bft) S-SO 202 0 min 0 W/m 13,8 C 16,7 C 4,3 km/h (1 Bft)
16/06/2012 02:50 16,8 C 82 % 1015,8 hPa 0,0 mm 1,1 km/h (1 Bft) SO 225 0 min 0 W/m 13,7 C 16,8 C 4,0 km/h (1 Bft)
16/06/2012 03:02 16,8 C 82 % 1015,7 hPa 0,0 mm 0,0 km/h (0 Bft) S-SO 202 0 min 0 W/m 13,7 C 16,8 C 0,0 km/h (0 Bft)
16/06/2012 03:10 16,9 C 81 % 1016,0 hPa 0,0 mm 4,0 km/h (1 Bft) S-SO 202 0 min 0 W/m 13,6 C 16,9 C 4,0 km/h (1 Bft)
16/06/2012 03:20 16,9 C 81 % 1016,0 hPa 0,0 mm 1,8 km/h (1 Bft) S-SO 202 0 min 0 W/m 13,6 C 16,9 C 4,0 km/h (1 Bft)
16/06/2012 03:30 17,0 C 81 % 1016,0 hPa 0,0 mm 1,8 km/h (1 Bft) S 180 0 min 0 W/m 13,7 C 17,0 C 3,6 km/h (1 Bft)
16/06/2012 03:40 17,1 C 81 % 1016,0 hPa 0,0 mm 2,9 km/h (1 Bft) S-SO 202 0 min 0 W/m 13,8 C 17,1 C 4,0 km/h (1 Bft)
16/06/2012 03:50 17,1 C 80 % 1016,1 hPa 0,0 mm 2,2 km/h (1 Bft) S-SO 202 0 min 0 W/m 13,6 C 17,1 C 4,0 km/h (1 Bft)
16/06/2012 04:00 17,1 C 80 % 1016,0 hPa 0,0 mm 2,2 km/h (1 Bft) SO 225 0 min 0 W/m 13,6 C 17,1 C 4,3 km/h (1 Bft)
16/06/2012 04:10 17,1 C 80 % 1016,0 hPa 0,0 mm 2,2 km/h (1 Bft) SO 225 0 min 0 W/m 13,6 C 17,1 C 3,6 km/h (1 Bft)
16/06/2012 04:20 17,1 C 80 % 1015,9 hPa 0,0 mm 0,4 km/h (0 Bft) S-SO 202 0 min 0 W/m 13,6 C 17,1 C 3,2 km/h (1 Bft)
16/06/2012 04:30 17,1 C 80 % 1015,7 hPa 0,0 mm 1,1 km/h (1 Bft) S-SO 202 0 min 0 W/m 13,6 C 17,1 C 4,0 km/h (1 Bft)
16/06/2012 04:40 17,1 C 80 % 1015,9 hPa 0,0 mm 2,2 km/h (1 Bft) S-SO 202 0 min 0 W/m 13,6 C 17,1 C 4,0 km/h (1 Bft)
16/06/2012 04:50 17,1 C 80 % 1015,7 hPa 0,0 mm 0,0 km/h (0 Bft) SO 225 0 min 0 W/m 13,6 C 17,1 C 0,0 km/h (0 Bft)
16/06/2012 05:00 17,1 C 80 % 1015,5 hPa 0,0 mm 0,0 km/h (0 Bft) S 180 0 min 0 W/m 13,6 C 17,1 C 0,0 km/h (0 Bft)
16/06/2012 05:10 17,1 C 80 % 1015,4 hPa 0,0 mm 0,0 km/h (0 Bft) S 180 0 min 0 W/m 13,6 C 17,1 C 0,0 km/h (0 Bft)
16/06/2012 05:20 16,9 C 81 % 1015,4 hPa 0,0 mm 0,4 km/h (0 Bft) S 180 0 min 0 W/m 13,6 C 16,9 C 3,6 km/h (1 Bft)
16/06/2012 05:30 16,9 C 81 % 1015,3 hPa 0,0 mm 0,0 km/h (0 Bft) S 180 0 min 0 W/m 13,6 C 16,9 C 0,0 km/h (0 Bft)
16/06/2012 05:40 16,8 C 81 % 1015,2 hPa 0,0 mm 0,0 km/h (0 Bft) S 180 0 min 0 W/m 13,5 C 16,8 C 0,0 km/h (0 Bft)
16/06/2012 05:50 16,8 C 81 % 1015,3 hPa 0,0 mm 0,0 km/h (0 Bft) S 180 0 min 0 W/m 13,5 C 16,8 C 0,0 km/h (0 Bft)
16/06/2012 06:00 16,8 C 81 % 1015,3 hPa 0,0 mm 0,0 km/h (0 Bft) S 180 0 min 0 W/m 13,5 C 16,8 C 0,0 km/h (0 Bft)
16/06/2012 06:10 16,8 C 81 % 1015,2 hPa 0,0 mm 0,0 km/h (0 Bft) S 180 0 min 0 W/m 13,5 C 16,8 C 0,0 km/h (0 Bft)
16/06/2012 06:20 16,8 C 82 % 1015,5 hPa 0,0 mm 0,0 km/h (0 Bft) S 180 0 min 0 W/m 13,7 C 16,8 C 0,0 km/h (0 Bft)
16/06/2012 06:30 16,8 C 82 % 1015,4 hPa 0,0 mm 0,0 km/h (0 Bft) S 180 0 min 0 W/m 13,7 C 16,8 C 0,0 km/h (0 Bft)
16/06/2012 06:40 16,8 C 82 % 1015,4 hPa 0,0 mm 0,0 km/h (0 Bft) S 180 0 min 0 W/m 13,7 C 16,8 C 0,0 km/h (0 Bft)
16/06/2012 06:50 16,8 C 82 % 1015,3 hPa 0,0 mm 0,7 km/h (0 Bft) S 180 0 min 0 W/m 13,7 C 16,8 C 4,0 km/h (1 Bft)
16/06/2012 07:00 16,8 C 82 % 1015,3 hPa 0,0 mm 0,0 km/h (0 Bft) S-SE 157 0 min 0 W/m 13,7 C 16,8 C 0,0 km/h (0 Bft)
16/06/2012 07:10 16,9 C 82 % 1015,3 hPa 0,0 mm 2,2 km/h (1 Bft) S-SE 157 0 min 0 W/m 13,8 C 16,9 C 3,6 km/h (1 Bft)
16/06/2012 07:20 17,0 C 82 % 1015,3 hPa 0,0 mm 0,7 km/h (0 Bft) S 180 0 min 0 W/m 13,9 C 17,0 C 4,0 km/h (1 Bft)
16/06/2012 07:30 17,3 C 82 % 1015,4 hPa 0,0 mm 0,0 km/h (0 Bft) S 180 0 min 0 W/m 14,2 C 17,3 C 0,0 km/h (0 Bft)
16/06/2012 07:40 17,4 C 82 % 1015,4 hPa 0,0 mm 0,0 km/h (0 Bft) S-SO 202 0 min 0 W/m 14,3 C 17,4 C 0,0 km/h (0 Bft)
16/06/2012 07:50 17,6 C 82 % 1015,6 hPa 0,0 mm 0,0 km/h (0 Bft) S 180 0 min 0 W/m 14,5 C 17,6 C 0,0 km/h (0 Bft)
16/06/2012 08:00 17,9 C 82 % 1015,6 hPa 0,0 mm 0,0 km/h (0 Bft) S 180 0 min 0 W/m 14,8 C 17,9 C 3,2 km/h (1 Bft)
16/06/2012 08:10 18,0 C 82 % 1015,8 hPa 0,0 mm 0,0 km/h (0 Bft) S 180 0 min 0 W/m 14,9 C 18,0 C 0,0 km/h (0 Bft)
16/06/2012 08:20 18,2 C 82 % 1015,8 hPa 0,0 mm 1,4 km/h (1 Bft) S-SO 202 0 min 0 W/m 15,1 C 18,2 C 4,0 km/h (1 Bft)
16/06/2012 08:30 18,4 C 81 % 1015,8 hPa 0,0 mm 0,0 km/h (0 Bft) SO 225 0 min 0 W/m 15,1 C 18,4 C 3,6 km/h (1 Bft)
16/06/2012 08:40 18,7 C 80 % 1015,9 hPa 0,0 mm 0,0 km/h (0 Bft) SO 225 0 min 0 W/m 15,2 C 18,7 C 1,4 km/h (1 Bft)
16/06/2012 08:50 18,9 C 80 % 1016,0 hPa 0,0 mm 1,4 km/h (1 Bft) S-SO 202 0 min 0 W/m 15,4 C 18,9 C 3,6 km/h (1 Bft)
16/06/2012 09:00 19,1 C 77 % 1016,1 hPa 0,0 mm 1,4 km/h (1 Bft) SO 225 0 min 0 W/m 15,0 C 19,1 C 6,5 km/h (2 Bft)
16/06/2012 09:10 19,1 C 77 % 1016,1 hPa 0,0 mm 1,1 km/h (1 Bft) SO 225 0 min 0 W/m 15,0 C 19,1 C 4,0 km/h (1 Bft)
16/06/2012 09:20 19,2 C 78 % 1016,3 hPa 0,0 mm 1,4 km/h (1 Bft) S-SO 202 0 min 0 W/m 15,3 C 19,2 C 4,0 km/h (1 Bft)
16/06/2012 09:30 19,2 C 77 % 1016,3 hPa 0,0 mm 5,0 km/h (1 Bft) O-SO 247 0 min 0 W/m 15,1 C 19,2 C 10,4 km/h (2 Bft)
16/06/2012 09:40 19,3 C 77 % 1016,4 hPa 0,0 mm 5,4 km/h (2 Bft) O-SO 247 0 min 0 W/m 15,2 C 19,3 C 5,4 km/h (2 Bft)
16/06/2012 09:50 19,3 C 78 % 1016,5 hPa 0,0 mm 2,9 km/h (1 Bft) SO 225 0 min 0 W/m 15,4 C 19,3 C 4,3 km/h (1 Bft)
16/06/2012 10:00 19,5 C 77 % 1016,5 hPa 0,0 mm 7,2 km/h (2 Bft) O-SO 247 0 min 0 W/m 15,4 C 19,5 C 8,3 km/h (2 Bft)
16/06/2012 10:10 19,8 C 76 % 1016,6 hPa 0,0 mm 5,8 km/h (2 Bft) S-SO 202 0 min 0 W/m 15,4 C 19,8 C 11,2 km/h (2 Bft)
16/06/2012 10:20 19,9 C 74 % 1016,8 hPa 0,0 mm 8,6 km/h (2 Bft) S-SO 202 0 min 0 W/m 15,1 C 19,9 C 13,0 km/h (3 Bft)
16/06/2012 10:30 19,9 C 75 % 1016,8 hPa 0,0 mm 4,7 km/h (1 Bft) SO 225 0 min 0 W/m 15,3 C 19,9 C 12,6 km/h (3 Bft)
16/06/2012 10:40 19,8 C 76 % 1016,9 hPa 0,0 mm 2,5 km/h (1 Bft) SO 225 0 min 0 W/m 15,4 C 19,8 C 4,3 km/h (1 Bft)
16/06/2012 10:50 19,9 C 77 % 1016,9 hPa 0,0 mm 0,7 km/h (0 Bft) SO 225 0 min 0 W/m 15,7 C 19,9 C 2,9 km/h (1 Bft)
16/06/2012 11:00 20,1 C 76 % 1017,0 hPa 0,0 mm 5,0 km/h (1 Bft) SO 225 0 min 0 W/m 15,7 C 20,1 C 6,8 km/h (2 Bft)
16/06/2012 11:10 19,9 C 75 % 1017,1 hPa 0,0 mm 4,3 km/h (1 Bft) SO 225 0 min 0 W/m 15,3 C 19,9 C 9,4 km/h (2 Bft)
16/06/2012 11:20 20,1 C 76 % 1017,1 hPa 0,0 mm 1,4 km/h (1 Bft) SO 225 0 min 0 W/m 15,7 C 20,1 C 3,2 km/h (1 Bft)
16/06/2012 11:30 20,5 C 75 % 1017,1 hPa 0,0 mm 5,4 km/h (2 Bft) O-SO 247 0 min 0 W/m 15,9 C 20,5 C 8,6 km/h (2 Bft)
16/06/2012 11:40 20,8 C 73 % 1017,1 hPa 0,0 mm 3,2 km/h (1 Bft) O-SO 247 0 min 0 W/m 15,8 C 20,8 C 3,6 km/h (1 Bft)
16/06/2012 11:50 20,9 C 71 % 1017,2 hPa 0,0 mm 5,8 km/h (2 Bft) SE 135 0 min 0 W/m 15,4 C 20,9 C 12,6 km/h (3 Bft)
16/06/2012 12:00 20,8 C 71 % 1017,3 hPa 0,0 mm 1,4 km/h (1 Bft) SO 225 0 min 0 W/m 15,3 C 20,8 C 3,6 km/h (1 Bft)
16/06/2012 12:10 20,8 C 71 % 1017,4 hPa 0,0 mm 3,6 km/h (1 Bft) S-SO 202 0 min 0 W/m 15,3 C 20,8 C 3,6 km/h (1 Bft)
16/06/2012 12:20 20,5 C 72 % 1017,6 hPa 0,0 mm 0,0 km/h (0 Bft) O-SO 247 0 min 0 W/m 15,3 C 20,5 C 1,4 km/h (1 Bft)
16/06/2012 12:30 20,3 C 71 % 1017,5 hPa 0,0 mm 6,1 km/h (2 Bft) O 270 0 min 0 W/m 14,9 C 20,3 C 6,1 km/h (2 Bft)
16/06/2012 12:40 19,9 C 72 % 1017,6 hPa 0,0 mm 4,7 km/h (1 Bft) O-SO 247 0 min 0 W/m 14,7 C 19,9 C 8,3 km/h (2 Bft)
16/06/2012 12:50 19,9 C 72 % 1017,9 hPa 0,0 mm 2,5 km/h (1 Bft) O-SO 247 0 min 0 W/m 14,7 C 19,9 C 3,6 km/h (1 Bft)
16/06/2012 13:00 19,7 C 73 % 1018,0 hPa 0,0 mm 1,1 km/h (1 Bft) O-SO 247 0 min 0 W/m 14,7 C 19,7 C 3,6 km/h (1 Bft)
16/06/2012 13:10 19,4 C 73 % 1018,1 hPa 0,0 mm 3,2 km/h (1 Bft) S-SO 202 0 min 0 W/m 14,4 C 19,4 C 9,0 km/h (2 Bft)
16/06/2012 13:20 19,3 C 73 % 1018,3 hPa 0,0 mm 3,6 km/h (1 Bft) S-SO 202 0 min 0 W/m 14,3 C 19,3 C 11,5 km/h (2 Bft)
16/06/2012 13:30 18,6 C 76 % 1018,7 hPa 0,0 mm 9,4 km/h (2 Bft) O 270 0 min 0 W/m 14,3 C 18,6 C 22,0 km/h (4 Bft)
16/06/2012 13:40 17,8 C 77 % 1018,8 hPa 0,0 mm 7,2 km/h (2 Bft) O 270 0 min 0 W/m 13,7 C 17,8 C 12,2 km/h (2 Bft)
16/06/2012 13:50 16,9 C 79 % 1019,0 hPa 0,0 mm 5,4 km/h (2 Bft) S-SO 202 0 min 0 W/m 13,2 C 16,9 C 11,5 km/h (2 Bft)
16/06/2012 14:00 16,4 C 81 % 1019,0 hPa 0,0 mm 4,7 km/h (1 Bft) O-SO 247 0 min 0 W/m 13,1 C 16,4 C 15,5 km/h (3 Bft)
16/06/2012 14:10 16,1 C 82 % 1018,9 hPa 0,0 mm 0,7 km/h (0 Bft) O-SO 247 0 min 0 W/m 13,0 C 16,1 C 4,3 km/h (1 Bft)
16/06/2012 14:20 16,1 C 81 % 1018,7 hPa 0,0 mm 3,2 km/h (1 Bft) SO 225 0 min 0 W/m 12,8 C 16,1 C 6,1 km/h (2 Bft)
16/06/2012 14:30 16,2 C 81 % 1018,7 hPa 0,0 mm 2,9 km/h (1 Bft) S-SO 202 0 min 0 W/m 12,9 C 16,2 C 6,1 km/h (2 Bft)
16/06/2012 14:40 16,6 C 81 % 1018,9 hPa 0,0 mm 4,0 km/h (1 Bft) S 180 0 min 0 W/m 13,3 C 16,6 C 9,4 km/h (2 Bft)
16/06/2012 14:50 17,0 C 78 % 1018,9 hPa 0,0 mm 2,2 km/h (1 Bft) SO 225 0 min 0 W/m 13,1 C 17,0 C 6,8 km/h (2 Bft)
16/06/2012 15:00 17,3 C 75 % 1018,9 hPa 0,0 mm 7,9 km/h (2 Bft) S-SO 202 0 min 0 W/m 12,8 C 17,3 C 7,9 km/h (2 Bft)
16/06/2012 15:10 17,5 C 74 % 1018,9 hPa 0,0 mm 6,8 km/h (2 Bft) S-SO 202 0 min 0 W/m 12,8 C 17,5 C 13,3 km/h (3 Bft)
16/06/2012 15:20 17,7 C 72 % 1018,9 hPa 0,0 mm 2,2 km/h (1 Bft) SO 225 0 min 0 W/m 12,6 C 17,7 C 7,9 km/h (2 Bft)
16/06/2012 15:30 17,9 C 71 % 1019,1 hPa 0,0 mm 7,2 km/h (2 Bft) O-SO 247 0 min 0 W/m 12,6 C 17,9 C 20,5 km/h (4 Bft)
16/06/2012 15:40 18,2 C 70 % 1019,1 hPa 0,0 mm 2,9 km/h (1 Bft) O-SO 247 0 min 0 W/m 12,6 C 18,2 C 3,6 km/h (1 Bft)
16/06/2012 15:50 18,3 C 70 % 1019,3 hPa 0,0 mm 4,7 km/h (1 Bft) O-SO 247 0 min 0 W/m 12,7 C 18,3 C 11,5 km/h (2 Bft)
16/06/2012 16:00 18,2 C 71 % 1019,5 hPa 0,1 mm 1,8 km/h (1 Bft) O-SO 247 0 min 0 W/m 12,9 C 18,2 C 4,0 km/h (1 Bft)
16/06/2012 16:10 17,8 C 72 % 1019,5 hPa 0,0 mm 1,1 km/h (1 Bft) O 270 0 min 0 W/m 12,7 C 17,8 C 4,3 km/h (1 Bft)
16/06/2012 16:20 17,6 C 74 % 1019,7 hPa 0,0 mm 2,5 km/h (1 Bft) S-SO 202 0 min 0 W/m 12,9 C 17,6 C 8,6 km/h (2 Bft)
16/06/2012 16:30 17,3 C 74 % 1019,7 hPa 0,0 mm 0,0 km/h (0 Bft) NO 315 0 min 0 W/m 12,6 C 17,3 C 0,0 km/h (0 Bft)
16/06/2012 16:40 17,1 C 76 % 1019,9 hPa 0,0 mm 0,4 km/h (0 Bft) SO 225 0 min 0 W/m 12,8 C 17,1 C 3,6 km/h (1 Bft)
16/06/2012 16:50 16,8 C 77 % 1020,2 hPa 0,0 mm 0,7 km/h (0 Bft) O 270 0 min 0 W/m 12,7 C 16,8 C 3,6 km/h (1 Bft)
16/06/2012 17:00 16,4 C 79 % 1020,2 hPa 0,0 mm 3,6 km/h (1 Bft) O 270 0 min 0 W/m 12,7 C 16,4 C 6,8 km/h (2 Bft)
16/06/2012 17:10 15,9 C 79 % 1020,1 hPa 0,0 mm 4,0 km/h (1 Bft) O-SO 247 0 min 0 W/m 12,3 C 15,9 C 6,5 km/h (2 Bft)
16/06/2012 17:20 15,8 C 80 % 1020,0 hPa 0,0 mm 6,1 km/h (2 Bft) S-SO 202 0 min 0 W/m 12,4 C 15,8 C 11,2 km/h (2 Bft)
16/06/2012 17:30 16,0 C 80 % 1020,2 hPa 0,0 mm 1,8 km/h (1 Bft) SO 225 0 min 0 W/m 12,5 C 16,0 C 2,9 km/h (1 Bft)
16/06/2012 17:40 16,2 C 78 % 1020,1 hPa 0,0 mm 3,6 km/h (1 Bft) SO 225 0 min 0 W/m 12,4 C 16,2 C 6,5 km/h (2 Bft)
16/06/2012 17:50 16,3 C 77 % 1020,0 hPa 0,0 mm 4,7 km/h (1 Bft) S 180 0 min 0 W/m 12,3 C 16,3 C 7,9 km/h (2 Bft)
16/06/2012 18:00 16,4 C 76 % 1020,0 hPa 0,0 mm 6,1 km/h (2 Bft) S-SO 202 0 min 0 W/m 12,2 C 16,4 C 10,4 km/h (2 Bft)
16/06/2012 18:10 16,5 C 77 % 1019,9 hPa 0,0 mm 4,3 km/h (1 Bft) SO 225 0 min 0 W/m 12,5 C 16,5 C 7,6 km/h (2 Bft)
16/06/2012 18:20 16,6 C 76 % 1019,9 hPa 0,0 mm 4,7 km/h (1 Bft) S-SO 202 0 min 0 W/m 12,3 C 16,6 C 6,5 km/h (2 Bft)
16/06/2012 18:30 16,7 C 76 % 1020,0 hPa 0,0 mm 5,8 km/h (2 Bft) S-SO 202 0 min 0 W/m 12,4 C 16,7 C 9,4 km/h (2 Bft)
16/06/2012 18:40 16,7 C 76 % 1020,0 hPa 0,0 mm 5,0 km/h (1 Bft) S-SO 202 0 min 0 W/m 12,4 C 16,7 C 9,7 km/h (2 Bft)
16/06/2012 18:50 16,6 C 74 % 1019,8 hPa 0,0 mm 2,2 km/h (1 Bft) S-SO 202 0 min 0 W/m 11,9 C 16,6 C 7,2 km/h (2 Bft)
16/06/2012 19:00 16,6 C 73 % 1020,1 hPa 0,0 mm 1,4 km/h (1 Bft) S-SO 202 0 min 0 W/m 11,7 C 16,6 C 4,0 km/h (1 Bft)
16/06/2012 18:50 16,6 C 74 % 1019,8 hPa 0,0 mm 2,2 km/h (1 Bft) S-SO 202 0 min 0 W/m 11,9 C 16,6 C 7,2 km/h (2 Bft)
16/06/2012 19:00 16,6 C 73 % 1020,1 hPa 0,0 mm 1,4 km/h (1 Bft) S-SO 202 0 min 0 W/m 11,7 C 16,6 C 4,0 km/h (1 Bft)
16/06/2012 19:20 16,5 C 75 % 1020,2 hPa 0,0 mm 1,4 km/h (1 Bft) SO 225 0 min 0 W/m 12,1 C 16,5 C 3,6 km/h (1 Bft)
16/06/2012 19:30 16,5 C 75 % 1020,1 hPa 0,0 mm 4,0 km/h (1 Bft) SO 225 0 min 0 W/m 12,1 C 16,5 C 7,2 km/h (2 Bft)
16/06/2012 19:40 16,4 C 75 % 1019,9 hPa 0,0 mm 2,5 km/h (1 Bft) S-SO 202 0 min 0 W/m 12,0 C 16,4 C 4,3 km/h (1 Bft)
16/06/2012 19:50 16,3 C 76 % 1019,6 hPa 0,0 mm 3,2 km/h (1 Bft) S 180 0 min 0 W/m 12,1 C 16,3 C 6,1 km/h (2 Bft)
16/06/2012 20:00 16,3 C 77 % 1019,7 hPa 0,0 mm 0,4 km/h (0 Bft) S-SO 202 0 min 0 W/m 12,3 C 16,3 C 0,4 km/h (0 Bft)
16/06/2012 20:10 16,3 C 77 % 1020,2 hPa 0,0 mm 1,4 km/h (1 Bft) SO 225 0 min 0 W/m 12,3 C 16,3 C 1,4 km/h (1 Bft)
16/06/2012 20:20 16,3 C 77 % 1019,9 hPa 0,0 mm 0,4 km/h (0 Bft) S-SO 202 0 min 0 W/m 12,3 C 16,3 C 0,4 km/h (0 Bft)
16/06/2012 20:30 16,3 C 77 % 1020,3 hPa 0,0 mm 6,1 km/h (2 Bft) SO 225 0 min 0 W/m 12,3 C 16,3 C 7,2 km/h (2 Bft)
16/06/2012 20:40 16,3 C 77 % 1020,4 hPa 0,0 mm 2,2 km/h (1 Bft) SO 225 0 min 0 W/m 12,3 C 16,3 C 6,1 km/h (2 Bft)
16/06/2012 20:50 16,2 C 78 % 1020,5 hPa 0,0 mm 2,5 km/h (1 Bft) SO 225 0 min 0 W/m 12,4 C 16,2 C 4,0 km/h (1 Bft)
16/06/2012 21:00 16,1 C 78 % 1020,5 hPa 0,0 mm 1,4 km/h (1 Bft) SO 225 0 min 0 W/m 12,3 C 16,1 C 4,3 km/h (1 Bft)
16/06/2012 21:10 15,9 C 78 % 1020,3 hPa 0,0 mm 1,4 km/h (1 Bft) SO 225 0 min 0 W/m 12,1 C 15,9 C 4,3 km/h (1 Bft)
16/06/2012 21:20 15,8 C 79 % 1020,4 hPa 0,0 mm 3,6 km/h (1 Bft) O-SO 247 0 min 0 W/m 12,2 C 15,8 C 6,5 km/h (2 Bft)
16/06/2012 21:30 15,8 C 79 % 1020,4 hPa 0,0 mm 0,0 km/h (0 Bft) O-SO 247 0 min 0 W/m 12,2 C 15,8 C 1,4 km/h (1 Bft)
16/06/2012 21:40 15,6 C 79 % 1020,3 hPa 0,0 mm 0,0 km/h (0 Bft) SO 225 0 min 0 W/m 12,0 C 15,6 C 0,0 km/h (0 Bft)
16/06/2012 21:50 15,5 C 79 % 1020,3 hPa 0,0 mm 1,8 km/h (1 Bft) S 180 0 min 0 W/m 11,9 C 15,5 C 4,7 km/h (1 Bft)
16/06/2012 22:00 15,4 C 79 % 1020,3 hPa 0,0 mm 0,7 km/h (0 Bft) S-SO 202 0 min 0 W/m 11,8 C 15,4 C 3,2 km/h (1 Bft)
16/06/2012 22:10 15,3 C 80 % 1020,6 hPa 0,0 mm 0,4 km/h (0 Bft) S-SO 202 0 min 0 W/m 11,9 C 15,3 C 0,4 km/h (0 Bft)
16/06/2012 22:20 15,2 C 81 % 1021,1 hPa 0,0 mm 3,6 km/h (1 Bft) SO 225 0 min 0 W/m 12,0 C 15,2 C 3,6 km/h (1 Bft)
16/06/2012 22:30 15,1 C 81 % 1020,9 hPa 0,0 mm 0,0 km/h (0 Bft) SO 225 0 min 0 W/m 11,9 C 15,1 C 0,0 km/h (0 Bft)
16/06/2012 22:40 15,0 C 82 % 1021,3 hPa 0,0 mm 3,2 km/h (1 Bft) SO 225 0 min 0 W/m 12,0 C 15,0 C 6,5 km/h (2 Bft)
16/06/2012 22:50 14,8 C 83 % 1021,5 hPa 0,0 mm 4,0 km/h (1 Bft) SO 225 0 min 0 W/m 11,9 C 14,8 C 8,6 km/h (2 Bft)
16/06/2012 23:00 14,5 C 84 % 1021,6 hPa 0,1 mm 2,9 km/h (1 Bft) S-SO 202 0 min 0 W/m 11,8 C 14,5 C 4,3 km/h (1 Bft)
16/06/2012 23:10 14,3 C 85 % 1021,7 hPa 0,0 mm 3,2 km/h (1 Bft) S 180 0 min 0 W/m 11,8 C 14,3 C 7,6 km/h (2 Bft)
16/06/2012 23:20 14,2 C 86 % 1021,6 hPa 0,3 mm 0,0 km/h (0 Bft) S-SO 202 0 min 0 W/m 11,9 C 14,2 C 0,0 km/h (0 Bft)
16/06/2012 23:30 13,9 C 87 % 1021,6 hPa 0,1 mm 2,5 km/h (1 Bft) S-SO 202 0 min 0 W/m 11,8 C 13,9 C 4,3 km/h (1 Bft)
16/06/2012 23:40 13,8 C 88 % 1021,6 hPa 0,0 mm 1,4 km/h (1 Bft) S-SO 202 0 min 0 W/m 11,8 C 13,8 C 1,4 km/h (1 Bft)
16/06/2012 23:50 13,7 C 89 % 1021,6 hPa 0,0 mm 2,5 km/h (1 Bft) SO 225 0 min 0 W/m 11,9 C 13,7 C 3,6 km/h (1 Bft)
_ Min-Heure 23:50 15:50 06:10 - 23:20 - - - - 19:00 23:50 23:20
Minimum _ 13,7 C 70 % 1015,2 hPa - 0,0 km/h (0 Bft) - - - - 11,7 C 13,7 C 0,0 km/h (0 Bft)
_ Max-Heure 11:50 23:50 23:10 23:20 13:30 - - 23:50 23:50 11:30 11:50 13:30
Maximum _ 20,9 C 89 % 1021,7 hPa 0,3 mm 9,4 km/h
O (2 Bft)
- - 0 min 0 W/m 15,9 C 20,9 C 22,0 km/h
O (4 Bft)
Moyenne _ 17,2 C 78 % 1018,0 hPa #0,6 mm 2,3 km/h (1 Bft) S-SO - #0 min. 0 W/m 13,3 C 17,2 C 4,9 km/h (1 Bft)
Saint Bonnet de Bellac- Haute Vienne - France